ECMWFNIL_700_spd_021.txt.gz
Wind_Speed
21 20 19 19 20 20 20 20 19 19 19 17 15 14 12 10 9 10 10 10 11 11 11 11 11 11 11 12 11 11 11 11 11 11 11 11 10 10 10 10 11 11
21 21 20 21 21 21 21 20 19 19 20 19 17 15 13 13 12 12 12 12 12 12 12 12 12 12 12 12 12 12 11 11 12 11 12 12 11 10 10 10 11 11
21 22 21 21 22 22 21 21 20 20 21 20 18 17 17 16 15 15 14 14 13 13 13 13 13 14 13 13 12 12 12 12 12 12 12 13 12 11 11 11 11 12
22 22 22 22 22 22 22 22 21 21 22 21 20 20 20 19 18 17 17 16 14 14 14 15 15 15 15 14 13 12 13 13 13 13 13 13 13 12 11 11 12 12
23 22 22 23 23 23 24 24 23 23 24 23 22 22 22 21 20 20 20 19 18 17 17 17 18 18 17 16 15 13 13 14 15 15 15 14 14 13 13 12 12 12
25 24 23 23 24 25 25 25 25 25 25 25 25 24 25 24 24 24 24 24 25 24 22 21 21 22 22 20 18 16 15 16 17 18 18 17 15 15 14 13 12 12
26 25 25 25 26 27 27 27 28 28 28 28 28 27 27 28 28 28 29 29 30 29 28 27 25 26 27 26 23 21 21 21 22 23 22 19 18 16 15 14 12 12
27 27 27 27 28 28 28 29 30 30 31 30 30 29 30 32 33 33 34 33 33 33 32 31 29 27 25 26 25 25 27 28 27 26 24 21 19 18 16 14 13 12
28 29 29 29 30 30 29 30 32 33 32 31 30 30 31 32 33 36 38 38 37 36 35 34 32 27 25 27 27 26 28 30 28 27 26 22 20 19 17 15 14 13
29 29 29 31 31 32 32 33 34 34 33 31 31 32 32 31 31 34 38 40 41 40 39 39 36 32 31 32 30 27 27 29 29 29 28 25 22 20 18 16 15 14
27 28 28 29 30 33 33 32 32 32 32 33 33 34 34 34 33 34 35 36 40 42 43 42 40 37 36 35 33 30 28 29 30 31 30 27 24 21 19 18 17 15
26 26 26 26 28 31 32 31 31 30 31 32 33 34 36 35 36 37 36 35 37 40 44 44 42 41 40 38 37 35 32 32 32 32 30 29 26 23 20 19 19 17
25 24 24 23 26 28 30 30 30 31 32 34 33 33 36 38 38 38 39 39 38 39 41 44 44 44 43 42 41 40 37 35 34 32 29 29 28 24 21 20 20 18
23 23 23 24 26 28 29 30 29 30 33 36 36 34 34 37 38 38 39 42 44 42 41 43 45 46 46 44 43 42 39 36 34 31 28 27 28 26 22 21 21 19
23 24 25 26 27 27 29 30 29 28 31 36 37 34 32 34 36 37 39 43 46 46 44 44 45 46 47 46 43 42 39 36 33 30 26 26 29 27 24 22 21 20
25 26 27 27 27 27 28 30 30 29 31 34 36 33 31 32 34 36 38 41 45 48 47 47 47 47 48 47 44 42 39 36 33 29 26 26 29 29 26 23 22 21
27 27 28 28 28 28 29 30 31 30 31 33 34 32 31 32 33 36 36 37 42 46 48 48 47 47 49 48 46 43 39 34 32 30 28 28 30 31 28 25 24 23
29 29 30 31 30 30 30 30 30 30 30 32 33 33 33 33 34 35 35 35 39 42 43 44 44 45 48 49 47 43 38 33 31 31 30 30 31 32 29 26 26 24
30 31 32 31 31 30 28 28 29 30 31 32 33 33 34 34 34 33 33 35 38 39 38 40 42 44 46 47 45 41 37 35 32 31 31 31 32 33 31 29 28 26
32 32 31 30 29 28 28 29 30 30 30 31 31 31 31 32 32 32 32 35 37 37 36 38 41 43 43 42 41 38 35 35 34 33 32 32 33 34 33 32 31 28
32 31 30 29 29 27 26 26 26 26 26 26 27 28 28 29 30 30 32 35 37 36 35 35 37 40 39 36 36 36 35 34 35 35 34 33 34 35 35 35 33 30
30 29 29 28 26 23 22 21 21 22 22 23 24 24 24 25 28 29 31 34 36 36 34 34 35 38 37 33 32 33 34 34 36 36 35 34 35 36 37 37 35 31
29 28 27 25 22 19 19 19 19 19 19 20 21 21 21 22 24 27 29 32 36 36 34 34 33 34 35 33 32 33 33 35 37 36 35 35 36 38 39 37 34 31
27 26 24 21 18 17 17 17 17 17 17 18 18 18 19 21 23 26 28 32 36 37 35 34 32 32 33 34 34 34 34 36 37 36 36 36 37 37 38 36 34 32
25 23 20 17 16 17 18 18 18 18 17 18 18 19 20 23 25 27 29 32 35 36 34 34 33 32 31 33 35 36 36 37 37 36 36 37 37 36 37 36 34 33
23 19 15 15 16 18 20 20 20 20 19 19 20 21 23 26 27 27 28 31 32 32 31 32 33 33 34 35 36 37 38 37 37 36 36 36 35 35 36 35 34 33

ECMWFNIL_700_spd_024.txt.gz
Wind_Speed
22 21 20 19 18 18 18 17 16 15 13 13 14 14 14 14 13 12 12 11 12 13 14 15 16 16 15 15 15 15 15 14 13 13 13 13 14 16 16 15 14 13
23 22 21 20 19 19 19 18 16 15 14 14 15 15 15 16 15 14 13 13 14 15 16 17 17 16 16 16 16 15 15 16 15 13 13 12 14 17 18 18 16 14
23 22 21 20 19 18 19 18 17 16 15 15 15 16 16 16 16 16 15 15 17 17 17 17 17 16 16 15 15 16 18 19 19 15 13 12 13 16 20 21 20 17
23 22 21 20 19 19 20 20 18 16 16 16 15 15 16 17 16 17 18 18 18 18 18 18 18 18 17 16 17 19 21 23 22 19 15 14 15 17 20 23 23 20
23 22 21 20 19 20 21 21 19 17 17 17 17 17 18 18 17 16 18 20 20 20 20 20 20 20 19 19 20 21 23 24 23 21 20 19 20 22 24 25 24 21
24 23 21 20 20 21 22 21 19 18 18 18 19 19 20 20 19 18 19 21 22 23 24 24 23 23 23 25 26 24 24 25 22 22 23 23 25 27 26 25 24 22
25 24 22 20 20 21 22 20 19 19 20 20 20 21 21 22 21 21 21 23 24 26 27 27 27 27 28 30 30 27 26 26 23 22 23 23 27 29 26 24 24 24
25 25 23 22 22 22 22 20 20 20 21 21 22 21 22 23 23 23 24 25 25 26 28 29 29 31 33 33 32 30 29 28 26 25 23 23 27 29 27 27 26 25
26 25 24 23 23 24 23 22 21 22 22 22 23 23 23 23 24 25 26 27 27 28 29 29 30 31 34 35 34 33 32 31 31 28 25 24 28 29 29 30 27 25
27 25 24 24 24 25 24 23 23 23 23 23 25 25 24 24 25 27 28 29 29 30 31 31 31 32 32 34 35 35 35 35 33 30 27 26 28 29 31 31 28 24
27 26 25 25 25 25 24 23 23 24 24 25 26 26 25 24 26 27 28 29 30 31 32 34 35 35 35 34 35 35 36 37 36 34 31 28 27 29 32 31 27 24
27 27 25 24 24 25 25 23 22 23 25 25 25 27 27 26 27 28 28 30 30 31 33 34 36 37 38 38 36 35 36 37 37 36 35 32 29 30 32 31 26 24
26 25 24 23 23 24 24 22 22 23 24 24 24 26 28 28 29 30 31 31 32 33 34 35 36 38 39 39 39 38 37 37 37 37 36 34 32 31 32 30 25 23
23 23 23 22 22 23 23 22 22 22 24 24 24 25 27 28 30 31 32 33 33 35 36 36 37 39 40 40 39 40 40 38 37 37 36 35 33 31 31 29 25 23
22 22 23 22 23 24 23 23 22 22 23 25 25 24 25 28 30 31 32 33 34 35 36 36 37 39 40 40 39 39 40 40 39 38 37 36 34 32 31 29 25 24
24 23 23 24 24 24 23 23 23 23 23 25 25 25 26 28 31 32 32 32 33 34 35 35 37 39 39 39 39 38 39 40 40 40 38 36 35 33 31 27 25 25
25 25 25 25 25 25 24 24 23 23 24 25 26 27 28 30 32 32 31 31 31 33 34 36 36 37 37 38 38 38 39 39 40 40 39 36 36 35 31 28 26 25
25 27 27 27 26 26 25 24 24 24 25 26 28 30 30 31 31 32 33 32 32 32 33 35 35 35 36 38 37 38 39 39 39 40 39 37 36 35 32 30 28 27
25 28 29 28 27 27 25 25 25 26 27 28 30 30 30 30 30 32 34 34 33 32 32 34 34 35 37 37 36 38 39 38 38 38 38 37 36 34 32 31 30 28
26 28 29 29 29 27 26 27 28 29 30 30 29 28 28 29 30 31 32 32 31 30 31 33 34 35 37 36 35 37 39 36 35 35 36 36 36 35 33 32 32 29
28 28 29 30 29 28 28 30 30 30 30 28 26 26 26 27 27 27 27 27 27 27 28 31 33 35 37 36 34 36 38 36 34 34 35 35 36 35 33 32 33 31
29 29 30 29 29 30 30 30 30 29 27 26 25 24 24 23 23 23 23 22 23 24 26 30 34 37 39 37 33 34 38 38 36 35 35 35 35 34 32 32 32 31
29 29 29 30 31 31 30 28 27 26 25 24 23 22 21 21 21 20 20 19 21 23 25 29 34 38 39 37 34 34 36 36 35 35 35 35 35 33 33 34 34 32
30 30 31 32 32 30 28 26 25 24 23 21 20 20 20 19 19 20 20 20 22 23 24 27 32 36 36 35 34 34 34 33 34 36 35 35 35 34 34 37 37 35
32 32 32 31 30 28 27 25 23 22 20 18 19 19 18 18 23 24 23 22 23 24 24 24 28 32 34 33 33 32 32 32 34 35 36 35 35 36 38 40 38 35
34 33 30 30 30 28 26 23 20 18 16 16 17 17 19 24 26 25 24 24 25 25 25 24 25 28 30 31 31 31 31 32 33 34 35 35 36 37 37 36 34 33

ECMWFNIL_700_spd_030.txt.gz
Wind_Speed
21 21 20 18 17 18 18 17 15 14 15 15 15 14 15 15 15 14 12 11 9 8 6 5 4 4 4 4 6 8 9 10 11 12 12 12 11 11 10 12 15 17
23 22 21 20 19 19 19 17 16 15 15 16 15 15 16 16 15 13 12 11 9 8 8 6 5 5 5 6 7 9 10 11 12 13 13 13 13 12 12 13 15 16
24 23 22 21 20 20 19 18 17 17 16 17 17 17 17 16 14 12 12 11 9 9 9 8 7 6 7 7 8 9 10 11 12 13 14 14 15 15 14 15 16 16
25 24 23 21 20 21 20 19 19 18 18 18 18 17 17 16 14 13 12 11 9 9 9 9 9 8 8 8 9 10 11 12 12 13 14 15 16 16 16 17 18 18
25 24 23 22 22 23 22 21 20 19 19 19 19 18 17 16 15 14 13 11 10 9 9 10 10 10 11 10 11 11 13 14 14 15 15 16 17 18 18 19 19 19
25 25 24 23 24 24 23 22 20 20 20 20 19 18 17 16 15 14 14 12 11 11 12 12 11 11 12 13 13 13 15 16 17 17 18 18 19 20 21 21 21 20
26 26 26 25 26 26 25 23 21 21 21 20 20 19 18 16 14 13 13 13 12 12 13 14 13 13 14 14 15 15 16 18 19 20 20 20 21 22 22 22 22 22
26 27 27 27 27 28 26 24 22 21 21 21 21 19 18 16 14 13 12 12 13 13 13 14 15 15 15 15 16 17 18 20 21 22 22 23 23 23 24 24 24 23
26 28 29 28 28 29 27 25 23 21 21 21 20 19 18 16 14 13 12 12 12 12 12 13 14 15 16 16 17 19 21 22 23 24 25 25 25 25 25 26 25 24
26 28 29 30 29 29 28 26 24 22 21 21 20 19 18 17 15 14 13 12 12 11 11 12 13 15 17 18 19 21 23 24 26 26 26 26 27 27 27 27 26 25
26 28 30 30 29 28 28 26 25 24 22 21 20 19 18 17 16 15 14 13 11 10 11 12 13 15 17 19 20 22 24 25 27 28 28 28 28 27 27 27 27 25
26 28 29 29 28 28 28 27 25 24 23 22 21 19 18 17 16 15 14 13 11 11 11 12 13 15 17 19 21 23 24 26 27 28 28 29 29 28 27 26 26 26
27 28 28 28 27 27 27 27 26 25 23 22 21 20 19 18 17 16 15 13 12 11 12 12 14 16 17 18 20 22 23 25 26 26 27 28 29 28 27 25 25 26
28 28 28 28 28 28 28 28 27 26 24 23 22 22 21 19 19 17 16 15 13 12 12 13 14 15 16 17 19 20 21 23 24 25 26 27 28 27 26 25 25 25
28 28 29 29 29 29 29 28 27 26 25 24 24 23 22 21 20 20 19 16 14 13 13 13 13 13 14 16 18 19 20 21 23 24 25 26 27 27 26 26 25 24
30 30 30 30 29 30 30 29 28 27 26 26 25 24 23 22 21 21 20 17 15 14 13 12 11 11 13 15 17 19 19 21 22 24 24 24 25 25 26 26 25 22
31 31 31 31 30 29 29 29 29 29 28 28 27 25 24 23 23 22 20 17 16 15 13 12 12 11 12 14 18 19 19 20 22 23 24 24 23 24 25 26 25 22
32 32 32 32 32 31 30 30 30 30 30 30 29 28 26 25 24 23 20 18 18 15 14 13 11 10 11 15 19 20 19 20 22 24 25 24 22 22 24 25 25 24
33 34 34 33 33 32 31 31 31 32 32 32 31 29 28 28 26 24 22 21 19 16 14 13 10 9 13 16 19 21 20 20 22 24 26 25 23 23 24 24 24 24
33 35 36 35 34 33 33 33 33 34 34 33 32 31 30 29 27 25 24 23 19 16 15 13 10 10 13 16 19 21 21 22 24 25 26 25 24 24 24 24 24 24
34 35 37 37 36 35 34 34 34 34 34 34 33 32 31 29 27 26 25 23 19 17 16 13 12 13 16 16 19 21 22 23 25 26 26 26 26 26 25 25 24 25
33 35 37 38 39 38 36 36 35 34 34 34 34 32 30 28 27 26 25 22 18 17 16 14 14 16 18 17 19 21 22 24 26 26 26 26 27 27 27 25 24 23
32 35 37 39 40 39 38 37 36 35 34 33 33 32 30 28 26 26 24 21 18 17 17 16 16 18 18 18 20 22 23 24 25 26 27 27 28 28 27 25 23 22
32 34 37 39 40 39 39 38 37 36 35 34 33 31 29 27 26 26 24 21 20 19 18 18 18 18 18 19 21 22 23 24 25 27 28 28 28 29 28 26 23 22
32 34 37 39 39 39 39 39 38 37 36 34 32 30 29 28 28 28 26 23 23 22 21 19 19 19 19 19 19 20 21 23 25 27 29 29 29 29 28 27 25 23
34 33 36 39 40 40 40 40 39 38 37 35 33 31 30 30 30 30 28 26 25 23 21 20 20 21 21 20 19 20 21 24 27 28 29 29 29 28 28 27 24 22

ECMWFNIL_700_spd_033.txt.gz
Wind_Speed
29 28 27 25 23 21 20 20 20 19 18 18 18 19 18 18 19 19 19 18 16 15 14 12 11 10 8 5 3 1 1 2 3 4 6 7 8 9 10 12 13 14
31 30 29 27 25 23 22 21 21 20 19 19 19 20 20 20 21 21 20 20 18 17 15 13 12 11 9 6 4 2 1 1 2 3 5 6 7 9 10 11 12 12
32 31 31 29 26 24 23 22 22 21 20 21 21 21 22 21 22 22 21 20 19 17 16 14 13 11 10 8 6 4 4 3 3 4 6 7 8 9 10 11 12 12
32 32 32 30 27 24 23 23 23 22 22 23 23 23 23 23 23 22 21 20 18 17 16 15 13 12 11 10 8 7 7 6 6 7 8 9 9 10 11 12 12 13
31 31 31 30 28 26 25 25 24 23 24 25 25 25 25 25 24 23 21 20 18 17 16 15 14 12 12 11 10 10 10 10 9 10 11 11 11 12 13 13 13 14
29 30 31 30 29 27 27 26 25 24 26 26 26 26 26 26 25 23 22 20 18 17 16 15 14 13 12 11 11 11 11 11 12 12 13 13 14 15 15 16 16 16
28 29 30 30 30 29 28 27 26 26 27 28 28 28 27 27 26 24 23 21 19 18 17 16 15 14 13 12 11 11 11 12 14 14 14 15 16 17 18 18 18 18
27 28 29 30 31 30 29 28 28 28 28 29 30 29 28 28 26 25 24 22 21 19 18 17 16 15 14 12 11 11 12 14 15 16 16 16 17 18 19 19 20 20
26 27 28 30 31 31 29 29 29 29 29 31 30 30 29 28 27 26 25 24 22 20 19 18 17 17 15 13 11 12 13 15 16 16 17 18 18 19 20 21 21 21
25 26 28 30 31 31 30 29 30 30 30 31 31 30 30 29 28 28 26 25 23 21 20 19 18 18 16 14 13 14 15 16 17 18 18 19 19 20 21 22 22 21
26 26 27 29 30 31 30 29 31 31 31 31 31 31 30 29 29 28 27 25 23 20 19 18 18 18 17 17 16 16 16 17 18 19 20 20 21 21 21 21 21 21
29 27 27 27 29 30 30 30 31 32 32 31 31 31 30 30 29 28 26 24 21 20 20 19 18 18 18 18 18 17 17 18 19 20 21 21 22 21 21 21 20 21
30 29 27 27 28 29 30 30 31 32 33 32 31 31 30 30 29 27 26 23 22 22 21 19 18 18 18 18 18 17 18 18 20 21 22 22 22 21 21 20 20 21
32 30 29 28 27 28 30 31 31 33 33 32 32 31 30 30 29 27 25 24 23 23 22 20 19 19 18 18 17 17 18 18 20 21 21 22 22 21 21 21 20 21
33 32 31 29 28 28 29 30 31 32 33 33 33 32 31 30 28 27 26 25 25 24 23 21 21 20 18 17 16 16 17 18 19 20 21 21 22 22 22 22 21 22
35 34 33 31 30 29 29 30 31 32 34 34 33 32 31 30 29 28 27 26 26 25 24 22 21 20 18 16 15 16 16 16 18 19 20 21 22 23 23 23 21 22
36 36 34 33 32 30 30 30 31 32 33 34 33 33 32 31 30 30 29 27 26 26 25 23 21 19 17 16 15 15 15 16 17 19 20 21 23 24 23 20 20 22
35 36 35 34 33 32 31 31 31 32 33 34 34 34 33 32 31 30 29 27 27 27 26 24 22 19 18 16 15 15 15 16 18 20 22 23 24 25 22 18 20 23
35 36 36 35 34 34 33 32 33 33 34 34 34 34 34 33 32 31 30 29 30 29 27 24 22 20 19 17 17 16 16 18 20 22 23 24 25 25 22 18 20 23
35 36 36 35 34 34 35 35 34 34 35 35 36 36 36 34 33 32 31 31 31 30 27 26 24 21 20 19 19 18 18 20 22 23 25 26 26 25 23 21 21 23
36 37 37 36 35 36 36 36 36 35 35 36 37 37 36 35 35 34 32 32 31 30 29 27 25 23 22 21 20 20 21 22 23 24 26 27 26 25 24 22 22 23
36 37 37 37 36 37 38 38 38 37 37 37 38 38 37 37 37 35 34 33 32 31 30 28 25 24 24 22 22 22 23 23 24 25 26 27 27 25 24 25 24 25
36 37 38 38 38 37 38 39 39 38 38 38 39 39 39 39 38 37 35 34 32 32 31 29 27 27 25 23 24 25 25 24 25 26 26 27 27 26 26 28 26 25
34 37 38 39 39 38 38 39 40 39 39 40 41 41 40 39 38 37 36 35 34 33 32 30 29 29 27 25 27 27 26 25 25 26 26 26 26 25 26 27 26 24
31 34 37 39 39 37 37 39 40 41 41 42 42 42 41 40 38 37 37 36 35 34 34 32 32 31 28 27 29 29 27 26 26 26 25 25 25 26 27 27 26 24
29 31 34 37 39 38 37 39 40 42 43 43 43 43 42 40 38 38 38 38 36 35 35 34 34 32 29 29 31 30 27 27 27 25 25 25 26 27 29 28 26 24

ECMWFNIL_700_spd_036.txt.gz
Wind_Speed
29 29 28 26 25 24 24 24 22 21 21 22 21 19 17 17 17 18 18 19 19 19 18 17 15 13 11 10 8 7 6 5 3 3 3 4 6 6 7 7 8 9
31 30 30 29 27 25 25 24 24 22 21 22 21 20 20 20 20 21 20 21 21 20 20 19 17 15 13 11 9 8 7 6 4 3 1 2 4 4 5 6 7 8
32 32 32 31 29 26 25 24 24 24 22 22 23 22 22 22 22 23 22 22 22 22 21 20 18 17 15 13 11 9 8 7 6 5 2 2 3 4 4 6 7 8
34 33 32 32 30 28 26 26 25 25 23 23 23 23 24 24 24 24 24 24 24 23 22 20 19 18 16 15 13 11 10 9 8 7 4 5 6 6 7 7 8 8
34 33 32 32 31 30 29 27 26 25 24 23 23 24 25 26 26 25 25 25 25 24 22 21 20 19 17 16 14 13 12 11 10 8 7 8 9 9 9 10 10 9
32 32 32 31 32 32 30 28 26 25 25 24 24 25 26 27 26 26 25 25 25 24 23 22 20 19 18 17 16 14 13 13 12 10 10 11 11 11 11 12 12 12
29 31 31 31 31 32 31 29 27 26 26 25 26 26 27 28 28 27 26 26 26 25 24 23 22 20 19 18 17 16 15 14 13 12 12 13 13 13 13 13 13 13
27 29 30 30 31 31 32 30 28 27 27 26 27 28 28 28 28 27 27 26 26 25 25 24 23 21 20 19 17 16 16 15 15 15 14 14 13 14 14 14 15 14
27 27 29 30 30 31 31 30 28 27 27 28 28 29 29 29 29 28 28 27 27 26 26 25 24 22 21 19 18 17 16 15 16 17 16 15 15 15 15 16 16 15
27 27 28 29 29 30 30 30 29 28 28 29 29 30 30 30 30 30 29 29 28 28 27 26 24 23 22 20 19 17 17 17 18 18 17 16 16 16 16 17 17 16
27 27 27 28 28 29 29 29 29 29 29 29 30 31 31 31 31 32 31 31 29 28 27 26 24 23 22 21 20 19 19 19 19 19 18 18 18 18 17 18 18 17
28 28 27 27 27 28 29 30 30 29 29 30 31 32 32 33 33 33 33 32 30 29 27 26 25 24 23 22 21 21 21 21 20 19 19 18 18 18 18 18 19 19
30 29 29 27 27 27 28 29 30 29 30 31 32 33 33 33 34 34 33 33 31 30 29 27 26 25 25 24 23 22 22 21 20 20 19 19 19 19 19 19 20 20
31 31 30 29 28 27 27 28 29 29 30 31 32 34 34 34 35 34 34 33 33 32 30 29 28 28 27 26 24 23 22 22 21 21 20 20 20 20 21 21 21 22
32 32 32 32 31 29 27 27 27 28 30 31 33 34 35 35 35 35 35 34 34 34 33 32 31 30 28 27 25 23 23 22 22 22 22 21 21 22 22 23 23 24
32 34 34 34 33 32 29 27 27 27 29 30 33 35 36 36 36 36 36 35 35 35 35 34 33 31 29 28 26 25 24 24 24 24 23 23 23 24 25 25 26 25
32 35 36 36 36 34 32 30 28 27 28 29 32 35 37 37 37 37 37 36 36 36 37 36 35 32 30 29 28 27 26 25 25 25 25 25 25 26 27 27 27 27
31 35 37 38 38 37 35 33 30 29 28 29 31 34 37 38 38 37 37 37 37 37 38 38 36 33 31 30 30 29 27 27 27 27 27 27 27 28 28 28 28 27
30 33 37 39 39 38 37 36 34 32 30 29 30 32 35 38 39 38 38 38 38 38 39 39 37 34 33 32 31 30 29 28 29 29 29 29 29 29 29 28 27 25
29 32 35 38 40 39 39 38 37 36 33 31 31 32 34 37 39 39 39 38 38 39 39 39 37 35 33 32 32 31 30 30 31 31 31 31 30 28 28 27 26 24
29 31 34 37 39 39 40 41 40 39 37 34 33 33 34 35 37 39 39 39 39 39 40 40 38 36 34 34 33 32 31 32 33 34 34 33 30 28 27 26 25 25
30 31 33 36 38 39 40 42 42 42 41 38 36 35 35 35 36 38 39 40 40 40 41 40 39 37 35 35 34 34 33 34 35 36 36 34 30 27 26 26 26 26
31 32 33 34 36 38 40 41 42 43 43 42 39 37 36 36 37 38 39 40 41 41 42 41 40 38 37 36 35 35 36 36 37 38 38 36 31 28 27 27 27 26
31 32 33 33 35 38 40 40 41 43 44 44 42 40 38 38 37 38 39 41 42 42 42 42 41 39 38 37 37 37 38 38 39 40 40 38 34 29 28 28 27 26
26 27 28 30 32 35 37 38 39 40 42 44 44 42 40 39 39 39 41 42 43 43 43 43 42 41 40 39 39 39 40 41 41 41 41 39 36 32 29 28 27 26
23 24 24 25 27 28 30 33 35 37 39 42 44 44 44 42 41 41 42 43 43 43 44 44 44 43 43 41 40 40 41 42 42 42 41 39 37 34 31 28 27 26